When you browse on this site, cookies collect data to enhance your experience and personalize the content and advertising you see.
Visit our Privacy Policy to learn more. By continuing to use the site, you agree to this use of cookies and data.
  • In Hungary
  • List of Countries
  • For 7 days
  • Water Temperature
  • Weather Map
  • News
  • Weather Widgets
  • user-avatar
    Login

    Hourly Weather Aniva

    Today, 20 January, Monday

    Time Temperature Precipitation Wind Pressure Humidity
    00:00 -8°C° 0.1 mm 2 mps 758 mmHg 95%
    01:00 -8°C° 0.1 mm 2 mps 758 mmHg 96%
    02:00 -8°C° 0.2 mm 2 mps 757 mmHg 96%
    03:00 -8°C° 0.2 mm 2 mps 757 mmHg 96%
    04:00 -8°C° 0 mm 2 mps 757 mmHg 96%
    05:00 -8°C° 0.2 mm 2 mps 757 mmHg 96%
    06:00 -8°C° 0.2 mm 2 mps 757 mmHg 96%
    07:00 -7°C° 0.2 mm 1 mps 756 mmHg 96%
    08:00 -6°C° 0.1 mm 1 mps 756 mmHg 95%
    09:00 -6°C° 0.1 mm 1 mps 756 mmHg 95%
    10:00 -4°C° 0 mm 1 mps 757 mmHg 95%
    11:00 -3°C° 0 mm 1 mps 756 mmHg 93%
    12:00 -2°C° 0 mm 1 mps 756 mmHg 91%
    13:00 -3°C° 0 mm 0 mps 756 mmHg 89%
    14:00 -3°C° 0.1 mm 0 mps 756 mmHg 90%
    15:00 -2°C° 0.1 mm 1 mps 756 mmHg 91%
    16:00 -2°C° 0.1 mm 1 mps 755 mmHg 91%
    17:00 -4°C° 0.1 mm 1 mps 756 mmHg 92%
    18:00 -7°C° 0.1 mm 2 mps 756 mmHg 93%
    19:00 -8°C° 0.1 mm 2 mps 756 mmHg 95%
    20:00 -9°C° 0.1 mm 2 mps 756 mmHg 94%
    21:00 -9°C° 0.1 mm 2 mps 756 mmHg 93%
    22:00 -10°C° 0.1 mm 2 mps 756 mmHg 93%
    23:00 -10°C° 0 mm 2 mps 756 mmHg 92%

    Tomorrow, 21 January, Tuesday

    Time Temperature Precipitation Wind Pressure Humidity
    00:00 -10°C° 0 mm 2 mps 756 mmHg 92%
    01:00 -12°C° 0 mm 2 mps 756 mmHg 92%
    02:00 -13°C° 0 mm 3 mps 756 mmHg 92%
    03:00 -13°C° 0 mm 3 mps 756 mmHg 91%
    04:00 -14°C° 0 mm 3 mps 756 mmHg 91%
    05:00 -14°C° 0 mm 3 mps 757 mmHg 90%
    06:00 -15°C° 0 mm 3 mps 757 mmHg 89%
    07:00 -16°C° 0 mm 3 mps 758 mmHg 89%
    08:00 -15°C° 0 mm 3 mps 758 mmHg 87%
    09:00 -15°C° 0 mm 3 mps 759 mmHg 86%
    10:00 -15°C° 0 mm 4 mps 759 mmHg 84%
    11:00 -14°C° 0 mm 4 mps 759 mmHg 82%
    12:00 -12°C° 0 mm 4 mps 760 mmHg 80%
    13:00 -12°C° 0 mm 5 mps 760 mmHg 78%
    14:00 -11°C° 0 mm 4 mps 760 mmHg 79%
    15:00 -12°C° 0 mm 4 mps 761 mmHg 80%
    16:00 -12°C° 0 mm 4 mps 761 mmHg 82%
    17:00 -15°C° 0 mm 4 mps 761 mmHg 83%
    18:00 -15°C° 0 mm 3 mps 762 mmHg 85%
    19:00 -17°C° 0 mm 3 mps 762 mmHg 87%
    20:00 -16°C° 0 mm 2 mps 763 mmHg 87%
    21:00 -16°C° 0 mm 2 mps 763 mmHg 87%
    22:00 -16°C° 0 mm 2 mps 763 mmHg 86%
    23:00 -16°C° 0 mm 2 mps 763 mmHg 85%

    Day after tomorrow, 22 January, Wednesday

    Time Temperature Precipitation Wind Pressure Humidity
    00:00 -14°C° 0 mm 1 mps 764 mmHg 85%
    01:00 -14°C° 0 mm 1 mps 764 mmHg 84%
    02:00 -14°C° 0 mm 1 mps 764 mmHg 85%
    03:00 -13°C° 0 mm 1 mps 763 mmHg 87%
    04:00 -12°C° 0 mm 1 mps 763 mmHg 88%
    05:00 -12°C° 0 mm 1 mps 763 mmHg 89%
    06:00 -11°C° 0 mm 1 mps 763 mmHg 90%
    07:00 -11°C° 0 mm 1 mps 763 mmHg 91%
    08:00 -10°C° 0 mm 1 mps 763 mmHg 89%
    09:00 -9°C° 0 mm 1 mps 764 mmHg 87%
    10:00 -9°C° 0 mm 2 mps 764 mmHg 85%
    11:00 -8°C° 0 mm 2 mps 763 mmHg 82%
    12:00 -8°C° 0 mm 3 mps 763 mmHg 78%
    13:00 -6°C° 0 mm 3 mps 763 mmHg 75%
    14:00 -6°C° 0 mm 3 mps 762 mmHg 77%
    15:00 -6°C° 0 mm 3 mps 762 mmHg 79%
    16:00 -6°C° 0 mm 3 mps 761 mmHg 81%
    17:00 -7°C° 0 mm 3 mps 761 mmHg 83%
    18:00 -7°C° 0 mm 3 mps 761 mmHg 85%
    19:00 -8°C° 0 mm 3 mps 761 mmHg 87%
    20:00 -9°C° 0 mm 3 mps 761 mmHg 87%
    21:00 -9°C° 0 mm 3 mps 761 mmHg 86%
    22:00 -9°C° 0 mm 2 mps 761 mmHg 86%
    23:00 -10°C° 0 mm 3 mps 762 mmHg 86%

    23 January, Thursday

    Time Temperature Precipitation Wind Pressure Humidity
    00:00 -12°C° 0 mm 3 mps 762 mmHg 85%
    01:00 -12°C° 0 mm 3 mps 762 mmHg 84%
    02:00 -13°C° 0 mm 3 mps 763 mmHg 84%
    03:00 -13°C° 0 mm 3 mps 763 mmHg 84%
    04:00 -14°C° 0 mm 3 mps 763 mmHg 84%
    05:00 -14°C° 0 mm 3 mps 763 mmHg 85%
    06:00 -14°C° 0 mm 3 mps 764 mmHg 86%
    07:00 -13°C° 0 mm 2 mps 764 mmHg 87%
    08:00 -13°C° 0 mm 2 mps 765 mmHg 86%
    09:00 -10°C° 0 mm 1 mps 765 mmHg 85%
    10:00 -10°C° 0 mm 1 mps 766 mmHg 84%
    11:00 -9°C° 0 mm 1 mps 766 mmHg 82%
    12:00 -9°C° 0 mm 2 mps 766 mmHg 79%
    13:00 -8°C° 0 mm 2 mps 766 mmHg 76%
    14:00 -8°C° 0 mm 2 mps 766 mmHg 78%
    15:00 -8°C° 0 mm 1 mps 766 mmHg 81%
    16:00 -8°C° 0 mm 1 mps 766 mmHg 83%
    17:00 -10°C° 0 mm 1 mps 766 mmHg 84%
    18:00 -12°C° 0 mm 1 mps 767 mmHg 85%
    19:00 -14°C° 0 mm 1 mps 767 mmHg 87%
    20:00 -14°C° 0 mm 1 mps 767 mmHg 87%
    21:00 -14°C° 0 mm 1 mps 767 mmHg 88%
    22:00 -14°C° 0 mm 1 mps 767 mmHg 89%
    23:00 -14°C° 0 mm 1 mps 766 mmHg 90%

    24 January, Friday

    Time Temperature Precipitation Wind Pressure Humidity
    00:00 -14°C° 0 mm 1 mps 766 mmHg 90%
    01:00 -14°C° 0 mm 1 mps 765 mmHg 91%
    02:00 -13°C° 0.1 mm 1 mps 765 mmHg 92%
    03:00 -15°C° 0.1 mm 2 mps 764 mmHg 93%
    04:00 -15°C° 0.1 mm 2 mps 764 mmHg 94%
    05:00 -14°C° 0.2 mm 2 mps 763 mmHg 94%
    06:00 -14°C° 0.2 mm 2 mps 763 mmHg 95%
    07:00 -13°C° 0.2 mm 2 mps 762 mmHg 95%
    08:00 -13°C° 0.4 mm 2 mps 762 mmHg 95%
    09:00 -12°C° 0.4 mm 2 mps 761 mmHg 94%
    10:00 -10°C° 0.4 mm 2 mps 761 mmHg 94%
    11:00 -9°C° 0.1 mm 2 mps 761 mmHg 92%
    12:00 -8°C° 0.1 mm 2 mps 760 mmHg 90%
    13:00 -6°C° 0.1 mm 1 mps 760 mmHg 88%
    14:00 -8°C° 0.1 mm 2 mps 760 mmHg 89%
    15:00 -9°C° 0.1 mm 3 mps 760 mmHg 89%
    16:00 -11°C° 0.1 mm 4 mps 760 mmHg 89%
    17:00 -14°C° 0 mm 4 mps 761 mmHg 89%
    18:00 -15°C° 0 mm 5 mps 762 mmHg 88%
    19:00 -18°C° 0 mm 5 mps 762 mmHg 88%
    20:00 -18°C° 0 mm 5 mps 763 mmHg 87%
    21:00 -18°C° 0 mm 5 mps 764 mmHg 87%
    22:00 -19°C° 0 mm 5 mps 764 mmHg 87%
    23:00 -19°C° 0 mm 5 mps 765 mmHg 87%

    25 January, Saturday

    Time Temperature Precipitation Wind Pressure Humidity
    00:00 -20°C° 0 mm 5 mps 766 mmHg 86%
    01:00 -20°C° 0 mm 5 mps 767 mmHg 85%
    02:00 -20°C° 0 mm 5 mps 767 mmHg 86%
    03:00 -20°C° 0 mm 5 mps 768 mmHg 87%
    04:00 -21°C° 0 mm 5 mps 768 mmHg 87%
    05:00 -20°C° 0 mm 4 mps 769 mmHg 88%
    06:00 -22°C° 0 mm 4 mps 769 mmHg 89%
    07:00 -22°C° 0 mm 4 mps 769 mmHg 89%
    08:00 -19°C° 0 mm 3 mps 770 mmHg 87%
    09:00 -19°C° 0 mm 3 mps 770 mmHg 85%
    10:00 -18°C° 0 mm 3 mps 770 mmHg 83%
    11:00 -17°C° 0 mm 3 mps 770 mmHg 81%
    12:00 -15°C° 0 mm 3 mps 770 mmHg 79%
    13:00 -14°C° 0 mm 3 mps 769 mmHg 78%
    14:00 -13°C° 0 mm 3 mps 769 mmHg 78%
    15:00 -14°C° 0 mm 4 mps 769 mmHg 79%
    16:00 -12°C° 0 mm 4 mps 768 mmHg 80%
    17:00 -14°C° 0 mm 4 mps 768 mmHg 80%
    18:00 -14°C° 0 mm 4 mps 768 mmHg 81%
    19:00 -14°C° 0 mm 3 mps 768 mmHg 81%
    20:00 -14°C° 0 mm 3 mps 767 mmHg 83%
    21:00 -14°C° 0 mm 2 mps 767 mmHg 85%
    22:00 -14°C° 0 mm 2 mps 767 mmHg 86%
    23:00 -15°C° 0 mm 2 mps 767 mmHg 88%
    Show more